Wind_Speed
40 37 40 42 44 42 36 32 30 30 27 25 27 27 30 34 35 33 24 14 7 12 6 12 16 12 17 15 18 26 31 28 24 29 30 29 24 27 24 22 21 16 15 17
37 41 44 45 48 40 34 33 31 34 31 29 30 30 33 38 42 36 27 10 7 4 4 5 28 28 24 28 29 26 22 27 23 18 21 23 24 20 26 26 23 21 19 21
37 39 41 43 42 38 39 37 37 38 36 34 34 32 35 41 46 36 27 20 16 10 11 10 27 30 25 28 24 18 20 20 29 25 27 30 32 35 33 29 25 26 26 24
38 39 40 40 45 44 43 45 42 37 36 31 30 33 36 42 49 46 42 40 25 22 18 20 28 21 23 24 22 18 14 13 18 27 31 32 33 36 35 33 32 31 31 28
39 39 38 46 53 49 44 35 33 31 28 21 22 27 37 47 50 56 50 42 30 39 35 36 35 32 29 24 16 12 20 21 20 24 27 28 31 36 35 35 35 35 36 36
33 31 36 44 45 42 30 25 29 27 18 19 18 18 30 36 50 52 42 41 42 27 31 32 28 35 27 24 17 24 23 29 28 29 29 32 35 40 40 38 38 41 40 39
23 26 31 30 30 36 33 27 30 28 28 26 18 18 17 29 33 39 41 34 26 23 25 25 29 28 24 30 29 31 35 38 38 39 38 36 40 45 45 47 46 43 41 44
19 25 23 27 28 23 21 33 33 31 23 22 17 16 12 21 26 33 33 35 33 34 31 28 27 21 22 26 29 28 41 37 44 48 51 53 50 44 47 48 47 47 47 47
21 19 20 28 30 29 28 35 31 28 26 25 26 21 20 19 25 29 36 33 27 40 42 42 43 41 41 39 35 30 33 42 48 50 53 52 54 55 53 51 54 54 55 55
24 19 19 22 19 21 26 34 30 29 34 32 28 24 22 25 28 30 30 35 29 29 40 43 46 54 53 51 45 40 46 53 54 53 55 58 65 63 59 54 52 56 57 59
27 23 24 25 28 30 30 32 33 42 43 37 34 27 28 26 36 35 33 36 38 43 46 48 43 44 45 50 54 57 55 57 55 52 48 52 57 57 55 54 53 56 57 59
34 31 31 32 36 36 32 34 35 44 45 44 39 39 40 39 36 40 44 46 48 41 42 41 41 43 46 46 42 48 52 55 54 52 48 45 45 48 51 53 55 55 57 60
43 40 39 38 40 36 39 45 43 39 57 44 37 39 42 47 48 44 47 49 45 41 34 40 39 37 40 37 38 42 49 48 43 45 41 41 43 46 49 52 54 55 58 59
54 50 49 49 51 49 46 44 44 44 47 52 49 42 41 43 50 48 47 48 45 44 42 43 40 38 38 38 39 39 39 42 43 43 44 45 43 43 44 46 51 54 56 58
64 60 57 52 53 55 54 50 49 46 53 50 58 51 54 50 45 49 54 57 52 49 47 49 49 47 47 45 44 45 46 48 49 49 51 51 50 52 54 55 57 60 62 64
71 69 65 63 60 60 60 58 56 52 54 56 56 59 57 57 51 48 48 49 52 54 53 53 53 51 51 52 51 51 53 54 55 54 56 57 57 60 63 65 66 66 68 70
75 73 71 71 65 62 65 63 61 61 59 60 62 60 60 61 61 59 59 59 57 56 54 53 54 54 55 56 57 58 59 62 61 61 63 65 67 70 70 70 70 74 76 78
77 77 77 76 71 66 66 69 68 67 68 67 67 67 67 68 70 68 66 62 61 61 61 62 62 62 62 62 64 67 67 68 70 71 72 73 76 77 79 81 82 83 84 86
84 82 79 77 74 73 71 71 75 75 74 75 74 73 75 76 75 76 77 74 73 73 73 74 75 74 74 75 76 77 77 77 77 78 78 80 81 82 85 88 89 90 90 90
89 87 86 85 84 81 78 75 76 77 81 82 82 82 81 82 83 84 84 82 82 81 81 81 83 84 84 83 84 83 83 83 85 86 86 85 86 89 91 91 93 95 95 94
91 92 92 90 88 88 87 86 86 86 83 84 86 88 89 90 90 90 90 91 91 90 90 91 90 90 89 89 89 88 88 89 90 91 90 91 93 95 96 97 93 90 91 92
84 87 90 90 90 90 89 89 91 92 92 91 90 90 92 94 94 94 93 91 91 92 92 92 92 95 94 91 90 91 91 92 94 94 96 97 95 91 87 87 90 90 88 86
67 71 73 75 77 79 80 82 86 88 89 89 91 94 95 94 94 93 93 92 91 92 91 91 93 95 96 95 94 95 96 95 95 91 90 90 88 86 88 88 86 82 79 78
49 53 56 59 62 64 66 69 71 74 79 82 84 86 89 91 94 94 95 96 96 96 95 95 97 97 94 92 91 90 90 90 88 88 86 86 83 78 72 69 70 71 69 67
32 36 39 43 46 49 53 57 61 63 66 70 73 75 78 80 83 83 85 87 87 87 86 86 87 89 88 87 86 86 85 82 77 73 67 61 59 61 65 66 63 62 61 59
18 21 25 29 32 35 39 43 46 49 52 55 55 56 59 61 64 66 69 70 73 74 75 77 77 77 77 76 70 65 61 54 50 54 57 59 62 63 61 58 56 58 60 62
6 9 13 16 20 23 26 29 31 35 38 39 39 39 40 41 45 50 54 56 59 62 63 65 64 62 55 49 47 43 42 50 54 55 57 57 55 52 52 55 57 59 59 59
Wind_Direction
244 244 249 250 253 252 253 256 258 259 260 251 258 250 240 226 221 222 200 242 24 8 23 9 351 330 325 324 328 281 264 275 274 271 274 281 289 282 283 280 279 275 301 289
249 248 246 249 253 254 256 257 254 257 255 259 253 250 234 225 220 223 224 181 297 314 284 139 315 309 308 317 323 311 282 260 255 265 276 285 285 293 297 277 270 268 280 288
248 247 243 245 252 254 257 262 262 263 261 251 245 241 230 228 222 218 195 207 235 268 98 71 259 269 297 309 328 322 297 283 261 259 271 277 280 284 289 286 279 265 265 272
245 243 246 250 254 256 259 262 261 258 248 239 232 233 230 227 221 214 211 227 219 229 206 223 223 234 265 296 333 311 308 298 269 263 269 276 281 282 283 274 282 281 268 265
242 250 260 258 260 262 265 258 250 230 222 220 228 233 232 226 223 219 223 227 220 227 227 215 218 229 247 260 243 262 294 305 296 287 280 269 270 277 279 278 280 286 278 272
246 253 260 255 253 254 243 236 229 225 205 193 209 221 237 226 222 220 213 217 221 237 229 225 237 226 246 259 245 245 255 258 254 258 260 271 270 273 272 273 276 279 279 271
247 264 269 246 238 237 239 238 228 220 203 189 224 216 229 239 220 220 214 219 230 233 234 232 236 251 260 256 254 260 254 264 267 265 266 266 272 271 272 270 273 275 276 276
246 268 248 229 233 235 228 213 220 217 207 203 208 219 225 223 223 224 219 232 238 234 231 239 233 231 265 271 269 271 255 269 280 276 276 278 273 276 275 272 269 270 273 277
242 255 238 238 248 251 218 203 215 211 196 202 201 211 225 243 223 225 234 231 264 255 252 256 255 258 266 273 283 288 279 265 271 274 278 269 271 272 277 274 272 272 276 276
236 239 225 228 236 219 199 205 213 218 197 207 201 219 237 263 260 230 242 242 257 257 256 255 260 262 267 271 272 271 276 283 293 291 282 275 273 275 274 273 272 272 274 275
237 238 232 230 240 233 231 220 215 199 197 202 210 220 234 253 254 259 260 261 255 262 269 267 269 263 266 270 274 279 282 288 292 293 287 281 277 273 274 276 277 278 279 279
230 237 242 241 240 248 249 241 224 207 205 215 224 235 235 237 246 251 254 254 257 262 257 259 259 263 270 273 269 275 280 289 291 294 292 287 281 276 274 276 278 280 282 281
233 238 241 241 243 239 241 245 239 225 212 220 223 227 236 239 240 251 253 254 259 265 266 251 250 253 259 262 267 275 282 285 286 287 288 285 282 280 278 277 279 282 284 284
233 238 239 240 241 243 244 245 245 240 227 223 233 237 245 249 244 245 253 256 261 262 265 265 266 266 265 268 272 273 276 279 281 286 291 292 291 290 289 288 286 285 285 284
238 238 239 241 246 247 247 249 248 241 237 242 238 242 243 248 252 254 254 255 256 258 265 268 267 268 270 271 274 275 277 279 282 285 288 289 291 293 293 292 291 291 291 291
241 243 243 242 245 247 247 247 247 248 248 244 245 246 250 250 252 254 257 260 261 262 263 264 266 267 268 270 272 272 273 277 280 284 286 287 288 289 290 291 291 290 290 290
242 243 243 243 242 244 244 245 247 249 248 250 248 248 249 250 251 253 255 261 261 264 267 266 268 269 270 272 273 274 277 277 280 282 284 287 288 289 290 290 287 286 288 289
241 243 244 244 244 244 242 243 245 247 249 252 252 252 253 250 252 256 259 260 260 262 265 267 270 271 270 273 275 276 278 280 280 283 286 287 288 290 290 289 288 288 290 291
241 244 247 249 250 251 249 243 244 246 248 249 251 253 254 254 254 256 257 258 260 262 264 267 270 272 273 274 275 276 278 281 283 285 286 287 289 290 290 290 291 293 294 294
248 247 247 248 249 250 251 250 246 245 247 248 249 251 253 254 256 257 258 260 262 264 267 270 271 273 274 275 277 279 281 282 284 285 286 287 286 287 288 291 293 293 295 295
249 251 251 251 250 251 253 253 253 251 249 249 249 250 251 252 254 256 257 259 261 264 265 267 269 271 272 274 276 279 281 281 282 284 285 287 287 287 289 291 294 292 291 292
251 252 253 254 254 253 252 252 252 253 254 254 252 250 251 253 254 255 256 258 261 263 264 266 268 270 272 274 276 278 278 279 281 284 284 285 288 290 289 289 290 291 292 293
250 251 252 252 253 254 253 252 252 252 252 252 253 254 254 253 254 255 258 260 261 263 265 267 269 271 274 276 276 276 278 280 282 284 284 285 290 292 291 291 291 292 292 293
251 253 254 254 254 255 256 256 255 253 253 253 253 254 255 256 256 256 258 259 260 261 262 263 266 269 272 274 276 277 279 281 283 286 288 289 289 289 289 289 290 292 294 294
248 250 252 253 253 254 255 256 257 258 257 256 255 254 254 254 255 256 257 258 259 261 262 264 265 267 269 272 274 276 279 283 284 285 288 290 291 291 291 292 293 294 297 299
251 254 255 256 256 256 256 257 258 260 261 261 260 257 255 253 252 252 253 255 257 259 260 261 264 267 270 273 277 279 281 285 289 290 288 290 292 292 294 297 299 300 300 302
276 282 278 273 269 266 264 262 261 262 262 263 262 259 255 249 246 245 245 247 250 253 257 260 264 270 275 277 281 281 281 288 291 292 294 293 293 295 297 297 297 299 303 304
Height
10815 10820 10821 10822 10821 10825 10832 10837 10841 10842 10846 10847 10847 10848 10848 10850 10853 10855 10861 10865 10868 10868 10867 10868 10872 10874 10874 10870 10868 10868 10867 10870 10870 10870 10869 10868 10869 10870 10870 10869 10869 10868 10866 10865
10806 10809 10811 10810 10810 10819 10826 10827 10829 10831 10836 10837 10838 10837 10838 10842 10846 10851 10857 10862 10867 10863 10860 10853 10857 10865 10869 10864 10863 10859 10856 10861 10864 10866 10866 10863 10863 10864 10865 10864 10863 10864 10863 10861
10797 10799 10800 10801 10805 10811 10814 10817 10820 10822 10824 10823 10824 10826 10831 10835 10838 10846 10855 10855 10865 10863 10862 10865 10872 10866 10862 10861 10859 10851 10850 10853 10858 10861 10861 10857 10857 10859 10860 10859 10859 10859 10858 10857
10788 10789 10790 10794 10795 10800 10805 10806 10808 10811 10813 10815 10817 10820 10823 10825 10829 10838 10844 10852 10860 10865 10859 10849 10857 10858 10860 10860 10854 10848 10847 10850 10849 10854 10855 10854 10850 10850 10853 10852 10852 10854 10852 10851
10778 10779 10783 10785 10783 10787 10793 10797 10799 10800 10802 10806 10808 10809 10809 10815 10821 10829 10835 10842 10850 10853 10853 10854 10853 10851 10852 10851 10842 10845 10843 10845 10845 10846 10847 10848 10846 10844 10845 10845 10844 10844 10845 10844
10771 10772 10771 10767 10770 10775 10784 10789 10792 10795 10797 10797 10799 10798 10796 10805 10811 10822 10827 10831 10838 10840 10842 10842 10847 10845 10844 10844 10841 10839 10838 10839 10838 10838 10840 10841 10839 10838 10837 10837 10836 10835 10835 10834
10762 10762 10758 10757 10762 10770 10777 10782 10784 10786 10788 10791 10793 10793 10795 10796 10803 10810 10817 10822 10827 10835 10837 10839 10840 10839 10836 10835 10836 10834 10832 10832 10831 10829 10830 10831 10830 10830 10828 10828 10828 10825 10824 10823
10755 10753 10750 10751 10756 10763 10767 10771 10774 10778 10783 10788 10792 10793 10794 10795 10796 10800 10808 10815 10819 10823 10826 10829 10829 10830 10831 10828 10828 10826 10826 10826 10824 10821 10821 10818 10818 10817 10816 10816 10816 10815 10813 10811
10748 10746 10745 10747 10751 10753 10757 10761 10765 10771 10779 10782 10784 10786 10788 10788 10790 10794 10798 10803 10805 10808 10811 10814 10817 10817 10818 10819 10819 10818 10817 10816 10813 10809 10807 10805 10803 10803 10803 10803 10802 10801 10800 10799
10740 10741 10742 10742 10744 10746 10751 10754 10759 10765 10770 10772 10776 10778 10780 10784 10785 10790 10794 10797 10799 10803 10803 10803 10806 10808 10808 10809 10811 10810 10806 10803 10802 10799 10796 10792 10790 10788 10789 10788 10788 10788 10786 10785
10732 10734 10736 10737 10738 10739 10743 10748 10752 10756 10760 10765 10768 10769 10770 10774 10778 10782 10786 10788 10789 10791 10792 10793 10793 10795 10795 10796 10797 10796 10795 10794 10790 10785 10782 10779 10776 10775 10775 10775 10774 10773 10771 10769
10723 10725 10728 10731 10732 10733 10737 10740 10744 10749 10754 10755 10758 10762 10764 10767 10769 10770 10774 10778 10781 10783 10783 10782 10782 10782 10782 10782 10783 10783 10781 10778 10775 10771 10768 10766 10764 10763 10763 10762 10761 10759 10756 10753
10712 10716 10720 10721 10720 10725 10724 10728 10734 10738 10741 10744 10746 10748 10752 10756 10759 10762 10764 10768 10770 10771 10773 10775 10774 10774 10773 10771 10770 10768 10767 10765 10762 10762 10759 10756 10754 10753 10751 10749 10747 10743 10741 10737
10699 10703 10706 10707 10707 10712 10715 10718 10724 10729 10733 10735 10737 10740 10743 10746 10750 10752 10755 10757 10758 10759 10760 10763 10763 10763 10763 10760 10758 10757 10756 10754 10750 10749 10748 10745 10743 10741 10738 10736 10734 10731 10726 10721
10682 10689 10694 10697 10699 10702 10707 10710 10714 10720 10725 10726 10728 10731 10733 10735 10737 10739 10741 10744 10746 10747 10748 10749 10750 10749 10749 10747 10746 10745 10743 10739 10737 10735 10735 10733 10731 10728 10725 10723 10719 10715 10710 10704
10667 10674 10681 10685 10688 10690 10694 10699 10702 10706 10708 10710 10713 10718 10719 10721 10723 10727 10728 10729 10730 10731 10732 10733 10735 10735 10734 10734 10735 10732 10730 10728 10725 10723 10724 10720 10718 10714 10710 10708 10705 10698 10692 10687
10652 10658 10663 10667 10674 10679 10680 10684 10688 10691 10693 10694 10697 10702 10704 10704 10707 10710 10712 10714 10716 10717 10717 10718 10719 10718 10718 10719 10719 10717 10716 10712 10711 10710 10707 10704 10700 10697 10695 10692 10687 10679 10674 10668
10633 10636 10640 10647 10657 10663 10669 10672 10674 10676 10677 10679 10680 10684 10685 10688 10691 10693 10696 10698 10699 10701 10702 10704 10704 10704 10704 10704 10702 10698 10697 10696 10695 10693 10689 10685 10680 10676 10672 10667 10662 10657 10653 10646
10617 10624 10631 10637 10643 10646 10649 10655 10658 10658 10661 10663 10664 10666 10665 10668 10673 10675 10678 10682 10684 10684 10687 10688 10686 10686 10685 10684 10683 10680 10680 10679 10676 10674 10671 10666 10662 10656 10648 10641 10636 10631 10627 10621
10599 10607 10613 10617 10621 10624 10630 10635 10638 10640 10641 10643 10646 10648 10649 10650 10652 10655 10658 10664 10665 10667 10669 10669 10668 10668 10665 10666 10663 10662 10662 10659 10654 10652 10650 10647 10642 10635 10628 10621 10614 10608 10602 10593
10577 10582 10589 10596 10602 10606 10610 10613 10615 10616 10619 10623 10626 10628 10629 10630 10633 10637 10640 10644 10647 10650 10652 10650 10648 10645 10645 10645 10644 10644 10642 10638 10633 10628 10627 10623 10617 10612 10609 10602 10593 10586 10579 10572
10556 10561 10565 10571 10575 10579 10585 10589 10589 10591 10594 10598 10601 10604 10606 10607 10612 10615 10619 10624 10627 10627 10628 10629 10627 10621 10621 10627 10625 10623 10620 10614 10611 10609 10604 10599 10596 10590 10584 10577 10568 10562 10555 10547
10534 10537 10541 10545 10549 10552 10555 10559 10562 10567 10571 10574 10575 10575 10578 10585 10589 10594 10597 10602 10603 10604 10606 10607 10602 10598 10598 10602 10602 10598 10595 10594 10590 10587 10580 10577 10572 10565 10557 10550 10543 10537 10531 10525
10517 10520 10523 10526 10528 10530 10533 10535 10537 10541 10543 10547 10551 10553 10555 10560 10563 10571 10573 10575 10578 10580 10583 10585 10580 10580 10581 10577 10574 10572 10571 10569 10567 10562 10557 10553 10548 10541 10534 10527 10521 10515 10509 10502
10506 10507 10508 10510 10512 10514 10515 10516 10517 10518 10520 10521 10523 10527 10531 10535 10538 10544 10546 10548 10551 10554 10560 10560 10560 10557 10557 10558 10557 10555 10553 10549 10545 10540 10535 10529 10524 10518 10512 10507 10502 10496 10489 10482
10499 10499 10499 10499 10500 10501 10501 10501 10502 10502 10501 10500 10501 10504 10507 10510 10515 10520 10523 10527 10529 10532 10533 10534 10537 10538 10538 10540 10539 10536 10533 10529 10524 10522 10517 10512 10505 10499 10493 10488 10482 10476 10470 10464
10495 10494 10493 10493 10492 10491 10490 10490 10490 10487 10486 10485 10486 10486 10488 10494 10497 10501 10505 10508 10510 10512 10514 10517 10520 10522 10525 10523 10521 10518 10516 10514 10509 10504 10499 10493 10488 10483 10477 10473 10467 10461 10455 10447